This demonstration page uses our WeatherBlox Daily Observations layout. Learn more.

Left ArrowRight Arrow

39.51506, -84.39828

Hourly Observations for January 19, 2019

Temp ( °F °C ) Dew Point ( °F °C ) Humidity (%) Winds ( mph kmh ) Pressure ( in mb ) Visibility ( mi km ) Precip ( " mm )
12:15 am 00:15 Cloudy 34 1.2 30 -1.2 84 84 E 9 15 30.12 1020 10 16 0.00 0.00
12:35 am 00:35 Cloudy 34 1.3 29 -1.4 82 82 E 9 15 30.09 1019 10 16 0.00 0.00
12:55 am 00:55 Cloudy 34 1.2 29 -1.4 83 83 E 8 13 30.06 1018 10 16 0.00 0.00
1:15 am 01:15 Cloudy 34 1.3 29 -1.4 82 82 E 6 9 30.06 1018 10 16 0.00 0.00
1:35 am 01:35 Cloudy 35 1.5 29 -1.6 80 80 E 8 13 30.06 1018 10 16 0.00 0.00
1:55 am 01:55 Cloudy 34 1.3 29 -1.5 82 82 ENE 9 15 30.06 1018 10 16 0.00 0.00
2:15 am 02:15 Cloudy 34 1.3 29 -1.5 82 82 NE 6 9 30.06 1018 10 16 0.00 0.00
2:35 am 02:35 Cloudy 34 1.3 29 -1.5 82 82 ENE 9 15 30.06 1018 10 16 0.00 0.00
2:55 am 02:55 Cloudy 35 1.4 29 -1.4 82 82 ENE 6 9 30.06 1018 10 16 0.00 0.00
3:15 am 03:15 Cloudy 35 1.6 29 -1.5 80 80 ENE 7 11 30.06 1018 10 16 0.00 0.00
3:35 am 03:35 Cloudy 35 1.5 29 -1.4 81 81 ENE 7 11 30.09 1019 10 16 0.00 0.00
3:55 am 03:55 Cloudy 34 1.3 30 -1.2 84 84 ENE 7 11 30.06 1018 10 16 0.00 0.00
4:15 am 04:15 Cloudy with Light Rain 34 0.9 31 -0.8 89 89 ENE 9 15 30.03 1017 5 8 0.00 0.00
4:35 am 04:35 Cloudy 34 0.9 30 -0.9 88 88 ENE 13 20 30.00 1016 7 11 0.00 0.00
4:55 am 04:55 Cloudy 34 1 31 -0.8 88 88 ENE 10 17 30.00 1016 10 16 0.00 0.00
5:15 am 05:15 Cloudy 34 1.1 30 -0.9 87 87 ENE 12 19 30.00 1016 10 16 0.00 0.00
5:35 am 05:35 Cloudy 34 1.2 30 -0.9 86 86 ENE 9 15 30.00 1016 10 16 0.00 0.00
5:55 am 05:55 Cloudy 34 1 30 -1 87 87 ENE 9 15 29.97 1015 10 16 0.00 0.00
6:15 am 06:15 Cloudy 34 1.1 30 -1 86 86 ENE 9 15 29.97 1015 10 16 0.00 0.00
6:35 am 06:35 Cloudy 34 1.1 30 -0.9 87 87 ENE 10 17 29.94 1014 10 16 0.00 0.00
6:55 am 06:55 Cloudy 34 1.1 30 -1 86 86 ENE 13 20 29.94 1014 10 16 0.00 0.00
7:15 am 07:15 Cloudy with Light Rain 34 1 30 -0.9 87 87 ENE 10 17 29.91 1013 7 11 0.00 0.00
7:35 am 07:35 Cloudy with Light Rain 34 1 30 -0.9 87 87 ENE 12 19 29.91 1013 7 11 0.00 0.00
7:55 am 07:55 Cloudy with Light Rain 34 0.9 31 -0.7 89 89 ENE 10 17 29.91 1013 7 11 0.00 0.00
8:15 am 08:15 Cloudy with Light Rain 34 0.9 31 -0.6 90 90 ENE 10 17 29.91 1013 4 6 0.00 0.00
8:35 am 08:35 Cloudy with Light Rain 33 0.8 31 -0.5 91 91 ENE 10 17 29.91 1013 3 4 0.02 0.51
8:55 am 08:55 Cloudy with Light Rain 33 0.7 31 -0.4 92 92 ENE 12 19 29.88 1012 3 5 0.04 1.02
9:15 am 09:15 Cloudy with Light Rain 33 0.7 31 -0.5 92 92 ENE 12 19 29.88 1012 4 6 0.01 0.25
9:35 am 09:35 Cloudy with Light Rain 33 0.8 31 -0.4 92 92 ENE 10 17 29.88 1012 5 8 0.01 0.25
9:55 am 09:55 Cloudy with Light Rain 34 0.9 31 -0.3 92 92 NE 10 17 29.88 1012 4 6 0.02 0.51
10:15 am 10:15 Cloudy with Light Rain 34 1 32 -0.1 92 92 NE 9 15 29.85 1011 3 4 0.03 0.76
10:35 am 10:35 Cloudy with Light Rain 34 1 32 0 93 93 NE 12 19 29.85 1011 3 4 0.04 1.02
10:55 am 10:55 Cloudy with Light Rain 34 1.1 32 0.2 94 94 NNE 8 13 29.85 1011 2 2 0.08 2.03
11:15 am 11:15 Cloudy with Light Snow 34 1.1 33 0.3 94 94 NNE 8 13 29.85 1011 1 2 0.06 1.52
11:35 am 11:35 Cloudy with Rain 34 1.1 33 0.4 95 95 NE 10 17 29.83 1010 2 3 0.09 2.29
11:55 am 11:55 Cloudy with Light Rain 34 1.2 33 0.5 95 95 NE 9 15 29.80 1009 3 4 0.12 3.05
12:15 pm 12:15 Cloudy with Light Snow 34 1.2 33 0.5 95 95 NE 9 15 29.80 1009 2 3 0.04 1.02
12:35 pm 12:35 Cloudy with Light Rain 34 1.2 33 0.5 95 95 NNE 10 17 29.74 1007 4 6 0.05 1.27
12:55 pm 12:55 Cloudy with Light Rain 34 1.3 33 0.6 95 95 NE 10 17 29.74 1007 3 4 0.06 1.52
1:15 pm 13:15 Cloudy with Light Wintry Mix 35 1.4 33 0.7 95 95 NNE 12 19 29.71 1006 2 2 0.04 1.02
1:35 pm 13:35 Cloudy with Light Wintry Mix 34 1.2 33 0.6 96 96 NNE 14 22 29.71 1006 2 2 0.10 2.54
1:55 pm 13:55 Cloudy with Light Rain 34 1.2 33 0.6 96 96 NNE 15 24 29.68 1005 2 3 0.11 2.79
2:15 pm 14:15 Cloudy with Light Rain 34 1.2 33 0.6 96 96 NNE 13 20 29.68 1005 2 3 0.00 0.00
2:35 pm 14:35 Cloudy with Drizzle 34 1.1 33 0.5 96 96 NNE 13 20 29.65 1004 2 3 0.00 0.00
2:55 pm 14:55 Cloudy with Light Rain 34 1 33 0.4 96 96 NNE 15 24 29.65 1004 2 3 0.01 0.25
3:15 pm 15:15 Cloudy with Light Rain 34 0.9 32 0.1 94 94 N 16 26 29.65 1004 3 4 0.00 0.00
3:35 pm 15:35 Cloudy with Light Rain 33 0.8 32 0.1 95 95 N 15 24 29.65 1004 2 3 0.01 0.25
3:55 pm 15:55 Cloudy with Light Rain 34 0.9 32 0.1 94 94 NNE 18 30 29.65 1004 3 4 0.03 0.76
4:15 pm 16:15 Cloudy with Rain 33 0.8 32 0 94 94 NNE 14 22 29.65 1004 4 6 0.01 0.25
4:35 pm 16:35 Cloudy with Rain 33 0.8 32 -0.2 93 93 NNE 15 24 29.65 1004 4 6 0.03 0.76
4:55 pm 16:55 Cloudy with Rain 33 0.6 31 -0.4 93 93 NNE 17 28 29.65 1004 4 6 0.05 1.27
5:15 pm 17:15 Cloudy with Light Wintry Mix 33 0.4 31 -0.7 92 92 NNE 16 26 29.65 1004 3 5 0.02 0.51
5:35 pm 17:35 Cloudy with Light Rain 33 0.3 31 -0.8 92 92 NNE 14 22 29.65 1004 4 6 0.05 1.27
5:55 pm 17:55 Cloudy with Light Wintry Mix 33 0.3 30 -0.9 92 92 NNE 22 35 29.62 1003 4 6 0.09 2.29
6:15 pm 18:15 Cloudy with Light Wintry Mix 32 0.1 30 -1.2 91 91 NNE 23 37 29.62 1003 5 8 0.02 0.51
6:35 pm 18:35 Cloudy with Light Wintry Mix 32 0 29 -1.4 90 90 NNE 22 35 29.56 1001 10 16 0.02 0.51
6:55 pm 18:55 Cloudy with Light Snow 32 0 29 -1.5 90 90 NNE 16 26 29.62 1003 10 16 0.02 0.51
7:15 pm 19:15 Cloudy with Light Snow 32 0.1 29 -1.5 89 89 N 16 26 29.62 1003 10 16 0.00 0.00
7:35 pm 19:35 Windy with Snow Likely 32 0 29 -1.7 88 88 NNE 20 31 29.62 1003 10 16 0.00 0.00
7:55 pm 19:55 Cloudy with Light Wintry Mix 31 -0.3 28 -2.1 88 88 N 14 22 29.68 1005 10 16 0.00 0.00
8:15 pm 20:15 Cloudy with Light Snow 30 -0.9 27 -2.7 88 88 N 18 30 29.68 1005 5 8 0.00 0.00
8:35 pm 20:35 Windy with Snow Likely 28 -2.5 24 -4.3 88 88 N 22 35 29.71 1006 3 4 0.00 0.00
8:55 pm 20:55 Windy with Snow Likely 26 -3.5 23 -5.2 88 88 N 21 33 29.71 1006 2 3 0.01 0.25
9:15 pm 21:15 Windy with Snow Likely 25 -3.8 22 -5.5 88 88 N 22 35 29.71 1006 2 3 0.00 0.00
9:35 pm 21:35 Windy with Snow Likely 24 -4.2 21 -5.9 88 88 NNE 22 35 29.71 1006 2 3 0.00 0.00
9:55 pm 21:55 Windy with Snow Likely 24 -4.4 21 -6.2 87 87 N 20 31 29.71 1006 3 5 0.00 0.00
10:15 pm 22:15 Windy with Snow Likely 24 -4.6 20 -6.6 86 86 N 21 33 29.71 1006 3 4 0.00 0.00
10:35 pm 22:35 Cloudy with Light Snow 23 -5 20 -6.9 87 87 N 18 30 29.74 1007 2 3 0.00 0.00
10:55 pm 22:55 Cloudy with Snow 22 -5.4 19 -7 89 89 N 22 35 29.77 1008 1 2 0.00 0.00
11:15 pm 23:15 Cloudy with Heavy Snow 21 -5.9 19 -7.4 89 89 N 21 33 29.74 1007 1 1 0.00 0.00
11:35 pm 23:35 Cloudy with Heavy Snow 21 -6 19 -7.5 89 89 N 21 33 29.74 1007 1 1 0.00 0.00
11:55 pm 23:55 Cloudy with Snow 21 -6.1 18 -7.7 89 89 N 16 26 29.77 1008 1 1 0.00 0.00

Powered by AerisWeather